Location: Unspecified
(0.0000°N, 0.0000°E)
Time: 00:40:40
(UTC+00:00)

deb Explorer IX - All Passes

Search period start: 26 July 2016 00:00
Search period end: 05 August 2016 00:00
Orbit: 553 x 1126 km, 38.8° (Epoch: 25 July)

Date Brightness Start Highest point End Pass type
(mag) Time Alt. Az. Time Alt. Az. Time Alt. Az.
26 Jul - 05:49:57 10° S 05:53:58 20° SE 05:57:33 10° E daylight
26 Jul - 07:36:29 10° WSW 07:41:21 49° NW 07:45:36 10° NNE daylight
26 Jul - 18:30:44 10° NW 18:36:42 62° NE 18:43:37 10° ESE visible
26 Jul - 20:19:03 10° W 20:24:33 27° SW 20:30:32 10° SSE visible
27 Jul - 05:32:03 10° SSW 05:36:30 23° SE 05:40:28 10° E visible
27 Jul - 07:18:58 10° WSW 07:23:53 43° NW 07:28:09 10° NNE daylight
27 Jul - 16:31:25 10° NE 16:31:45 10° NE 16:32:07 10° NE daylight
27 Jul - 18:13:14 10° NW 18:19:05 68° NE 18:25:56 10° SE daylight
27 Jul - 20:01:48 10° W 20:06:59 24° SW 20:12:37 10° SSE visible
28 Jul - 05:14:08 10° SSW 05:19:02 27° SE 05:23:19 10° E visible
28 Jul - 07:01:26 10° WSW 07:06:23 39° NW 07:10:40 10° NNE daylight
28 Jul - 16:12:51 10° NNE 16:14:14 11° NE 16:15:40 10° ENE daylight
28 Jul - 17:55:46 10° NW 18:01:30 75° NE 18:08:15 10° SE daylight
28 Jul - 19:44:36 10° W 19:49:24 22° SW 19:54:40 10° SSE visible
29 Jul - 04:56:16 10° SSW 05:01:33 31° SE 05:06:07 10° E visible
29 Jul - 06:43:54 10° WSW 06:48:52 35° NW 06:53:11 10° NNE daylight
29 Jul - 15:54:49 10° NNE 15:56:42 12° NE 15:58:41 10° ENE daylight
29 Jul - 17:38:17 10° NW 17:43:54 82° NE 17:50:33 10° SE daylight
29 Jul - 19:27:27 10° W 19:31:51 19° SW 19:36:38 10° S visible
30 Jul - 04:38:24 10° SSW 04:44:02 35° SE 04:48:52 10° ENE visible
30 Jul - 06:26:22 10° WSW 06:31:20 32° NW 06:35:39 10° NNE daylight
30 Jul - 15:36:56 10° NNE 15:39:10 13° NE 15:41:32 10° ENE daylight
30 Jul - 17:20:51 10° NW 17:26:19 90° SSW 17:32:49 10° SE daylight
30 Jul - 19:10:22 10° WSW 19:14:18 17° SW 19:18:33 10° S visible
31 Jul - 04:20:33 10° SSW 04:26:29 40° SE 04:31:34 10° ENE visible
31 Jul - 06:08:50 10° WSW 06:13:48 29° NW 06:18:07 10° NNE daylight
31 Jul - 15:19:08 10° NNE 15:21:38 14° NE 15:24:17 10° ENE daylight
31 Jul - 17:03:25 10° NW 17:08:44 81° SW 17:15:04 10° SE daylight
31 Jul - 18:53:23 10° WSW 18:56:45 15° SW 19:00:23 10° S visible
01 Aug - 04:02:41 10° SSW 04:08:55 45° SE 04:14:14 10° ENE visible
01 Aug - 05:51:17 10° W 05:56:13 27° NW 06:00:33 10° NNE daylight
01 Aug - 15:01:22 10° N 15:04:05 15° NE 15:07:00 10° ENE daylight
01 Aug - 16:46:00 10° NW 16:51:09 73° SW 16:57:19 10° SE daylight
01 Aug - 18:36:32 10° WSW 18:39:13 13° SSW 18:42:04 10° S visible
02 Aug - 03:44:50 10° SW 03:51:19 51° SE 03:56:52 10° ENE visible
02 Aug - 05:33:44 10° W 05:38:38 25° NW 05:42:57 10° NNE visible
02 Aug - 14:43:38 10° N 14:46:31 16° NE 14:49:39 10° E daylight
02 Aug - 16:28:36 10° WNW 16:33:35 64° SW 16:39:32 10° SE daylight
02 Aug - 18:20:00 10° SW 18:21:41 11° SSW 18:23:27 10° SSW daylight
03 Aug - 01:43:11 10° SSE 01:45:21 11° SSE 01:47:29 10° SE night (unlit)
03 Aug - 03:27:00 10° SW 03:33:43 57° SE 03:39:27 10° ENE visible
03 Aug - 05:16:12 10° W 05:21:02 23° NW 05:25:19 10° N visible
03 Aug - 14:25:56 10° N 14:28:59 17° NE 14:32:17 10° E daylight
03 Aug - 16:11:12 10° WNW 16:16:01 56° SW 16:21:44 10° SE daylight
04 Aug - 01:24:38 10° S 01:27:46 13° SE 01:30:47 10° ESE night (unlit)
04 Aug - 03:09:10 10° SW 03:16:04 63° SE 03:22:00 10° ENE visible
04 Aug - 04:58:40 10° W 05:03:25 22° NW 05:07:39 10° N visible
04 Aug - 14:08:14 10° N 14:11:25 19° NE 14:14:53 10° E daylight
04 Aug - 15:53:50 10° WNW 15:58:28 49° SW 16:03:56 10° SE daylight
